Weather History for El Centro, CA

Change the Weather History Date:

Saturday, October 27, 2012

  Actual Average Record
Temperature  
Mean Temperature 68 °F -  
Max Temperature 87 °F 81 °F 96 °F (2008)
Min Temperature 50 °F 57 °F 50 °F (2006)
Cooling Degree Days 4    
Growing Degree Days 18 (Base 50)    
Moisture  
Dew Point 18 °F    
Average Humidity 18    
Maximum Humidity 30    
Minimum Humidity 5    
Precipitation  
Precipitation 0.00 in - - ()
Sea Level Pressure  
Sea Level Pressure 29.96 in    
Wind  
Wind Speed 7 mph (West)    
Max Wind Speed 9 mph    
Max Gust Speed -    
Visibility 10 miles    
Events      
Averages and records for this station are not official NWS values.
T = Trace of Precipitation, MM = Missing Value Source: NWS Daily Summary

Daily Weather History Graph

Daily Weather History Graph

Search for Another Location

Airport:

Trip Planner

Search our weather history database for the weather conditions in past years. The results will help you decide how hot, cold, wet, or windy it might be!

Date:

Astronomy

Oct. 27, 2012 Rise Set
Actual Time 6:56 AM PDT 5:55 PM PDT
Civil Twilight 6:31 AM PDT 6:21 PM PDT
Nautical Twilight 6:02 AM PDT 6:49 PM PDT
Astronomical Twilight 5:33 AM PDT 7:18 PM PDT
Moon 4:40 PM PDT (10/27) 5:00 AM PDT (10/27)
Length of Visible Light 11h 49m
Length of Day
10h 59m
Waxing Gibbous, 96% of the Moon is Illuminated
Oct 27
Waxing Gibbous
Oct 29
Full
Nov 6
Last Quarter
Nov 13
New
Nov 20
First Quarter

Hourly Weather History & Observations

Time (PDT) Temp. Dew Point Humidity Pressure Visibility Wind Dir Wind Speed Gust Speed Precip Events Conditions
12:56 AM 53.1 °F 21.0 °F 29% 29.99 in 10.0 mi West 9.2 mph - N/A   Clear
1:56 AM 53.1 °F 21.0 °F 29% 29.98 in 10.0 mi West 8.1 mph - N/A   Clear
2:56 AM 52.0 °F 18.0 °F 26% 29.97 in 10.0 mi West 9.2 mph - N/A   Clear
3:56 AM 54.0 °F 23.0 °F 30% 29.96 in 10.0 mi WSW 8.1 mph - N/A   Clear
4:56 AM 51.1 °F 18.0 °F 27% 29.96 in 10.0 mi West 6.9 mph - N/A   Clear
5:56 AM 50.0 °F 17.1 °F 27% 29.98 in 10.0 mi West 6.9 mph - N/A   Clear
6:56 AM 51.1 °F 17.1 °F 26% 29.99 in 10.0 mi West 6.9 mph - N/A   Clear
7:56 AM 53.1 °F 18.0 °F 25% 30.01 in 10.0 mi West 5.8 mph - N/A   Clear
8:56 AM 62.1 °F 23.0 °F 22% 30.03 in 10.0 mi WSW 4.6 mph - N/A   Clear
9:56 AM 73.0 °F 24.1 °F 16% 30.01 in 10.0 mi West 6.9 mph - N/A   Clear
10:56 AM 79.0 °F 19.0 °F 11% 30.01 in 10.0 mi West 3.5 mph - N/A   Clear
11:56 AM 82.0 °F 12.9 °F 7% 29.98 in 10.0 mi Calm Calm - N/A   Clear
12:56 PM 84.0 °F 9.0 °F 6% 29.95 in 10.0 mi Calm Calm - N/A   Clear
1:56 PM 86.0 °F 9.0 °F 5% 29.92 in 10.0 mi NNW 6.9 mph - N/A   Clear
2:56 PM 86.0 °F 9.0 °F 5% 29.91 in 10.0 mi NW 8.1 mph - N/A   Clear
3:56 PM 87.1 °F 10.0 °F 6% 29.90 in 10.0 mi Variable 4.6 mph - N/A   Clear
4:56 PM 84.0 °F 18.0 °F 9% 29.89 in 10.0 mi Calm Calm - N/A   Clear
5:56 PM 79.0 °F 19.0 °F 11% 29.90 in 10.0 mi South 3.5 mph - N/A   Clear
6:56 PM 75.9 °F 21.0 °F 13% 29.91 in 10.0 mi SSW 3.5 mph - N/A   Clear
7:55 PM - - N/A% - - North - - N/A   Unknown
7:56 PM 70.0 °F 24.1 °F 18% 29.92 in 10.0 mi SW 3.5 mph - N/A   Clear
8:56 PM 66.0 °F 24.1 °F 20% 29.93 in 10.0 mi West 6.9 mph - N/A   Clear
9:56 PM 64.0 °F 21.0 °F 19% 29.95 in 10.0 mi West 8.1 mph - N/A   Clear
10:56 PM 63.0 °F 18.0 °F 18% 29.94 in 10.0 mi SW 8.1 mph - N/A   Clear
11:56 PM 61.0 °F 15.1 °F 17% 29.95 in 10.0 mi West 6.9 mph - N/A   Clear